Location: Arleux
(50.3632°N, 2.8721°E)
Time: 21:52:36
(UTC+00:00)

N. Korean satellite - Pass Details

Date: 07 March 2021
Orbit: 453 x 499 km, 97.2° (Epoch: 12 April)

Event Time Altitude Azimuth Distance (km) Brightness Sun altitude
Rises 05:09:35 0° 15° (NNE) 2,534 10.5 -12.0°
Reaches altitude 10° 05:11:39 10° 20° (NNE) 1,658 9.6 -11.6°
Maximum altitude 05:15:11 61° 101° (E) 554 7.1 -11.1°
Drops below altitude 10° 05:18:45 10° 182° (S) 1,670 9.2 -10.5°
Sets 05:20:50 0° 186° (S) 2,554 10.1 -10.2°
